Miscellaneous Local Product
Issued by NWS Hastings, NE

Home | Current Version | Previous Version | Graphics & Text | Print | Product List | Glossary On
Versions: 1 2 3 4 5 6 7 8 9 10 11 12 13 14 15 16 17 18 19 20 21 22 23 24 25 26 27 28 29 30 31 32 33 34 35 36 37 38 39 40 41 42 43 44 45 46 47 48 49 50
000
AXUS43 KGID 020602
MISGRI

GID CWA HOURLY WEATHER ROUNDUP
NATIONAL WEATHER SERVICE HASTINGS NE
100 AM CDT TUE SEP 02 2014

NOTE: "FAIR" INDICATES FEW OR NO CLOUDS BELOW 12,000 FEET WITH NO
SIGNIFICANT WEATHER AND/OR OBSTRUCTIONS TO VISIBILITY.

...SOUTH CENTRAL NEBRASKA...

CITY           SKY/WX    TMP DP  RH WIND       PRES   REMARKS
GRAND ISLAND   FAIR      58  53  84 CALM      29.99F
HASTINGS       FAIR      60  54  80 CALM      30.00R
KEARNEY        FAIR      57  54  88 NW5       30.01F
ORD            CLEAR     54  53  97 N3        29.98F
YORK           FAIR      57 N/A N/A W6        30.00R
AURORA         FAIR      56  55  95 CALM      29.99F
LEXINGTON      CLEAR     57  55  95 N6        30.02F
HOLDREGE       FAIR      59  57  92 CALM      30.00S
HEBRON         FAIR      63  56  77 E3        29.97F

...NEBRASKA PANHANDLE...

CITY           SKY/WX    TMP DP  RH WIND       PRES   REMARKS
CHADRON        CLEAR     47  46  97 SW5       30.04F
ALLIANCE       CLEAR     45  44  97 W7        30.07S
SCOTTSBLUFF    CLEAR     49  46  90 CALM      30.09S
SIDNEY         PTCLDY    54  47  77 VRB3      30.11S

...WESTERN AND NORTH CENTRAL NEBRASKA...

CITY           SKY/WX    TMP DP  RH WIND       PRES   REMARKS
VALENTINE      CLEAR     51  50  96 W5        30.01S
AINSWORTH      CLEAR     53  52  97 SW6       30.01S
ONEILL         CLEAR     56  56  98 W6        29.98S
BROKEN BOW     PTCLDY    54  53  97 CALM      30.02R
IMPERIAL       PTCLDY    58  53  84 NE9       30.07R
NORTH PLATTE   PTCLDY    54  52  93 CALM      30.04F
MCCOOK         CLEAR     60  55  83 NE5       30.02R

...EASTERN NEBRASKA...

CITY           SKY/WX    TMP DP  RH WIND       PRES   REMARKS
NORFOLK        FAIR      59  57  93 N3        29.94F
SO SIOUX CITY  FAIR      60  58  92 SW8         N/A
TEKAMAH        MOCLDY    62  59  90 N5        29.92F
ALBION         FAIR      57  55  92 NW8       29.96R
OMAHA EPPLEY   MOCLDY    65  58  78 N10       29.96R
OFFUTT AFB     MOCLDY    66  65  97 NW8       29.95R
MILLARD        FAIR      66  58  75 NW7       29.96S
LINCOLN        FAIR      62  56  80 CALM      29.97S
NEBRASKA CITY  FAIR      64  64 100 NW6       29.96R
BEATRICE       FAIR      63  61  93 N7        29.97S
FALLS CITY     FAIR      63  62  97 CALM      29.92R

...NORTHERN KANSAS...

CITY           SKY/WX    TMP DP  RH WIND       PRES   REMARKS
GOODLAND       CLEAR     64  57  78 S15       30.01S
HILL CITY      FAIR      63  58  83 N8        30.00R
NORTON         CLEAR     59  52  77 NE6       30.00S
PHILLIPSBURG   CLEAR     64  57  77 NE7       29.99R
SMITH CENTER   CLEAR     63  57  82 NE9       30.00F
HAYS           FAIR      64  57  77 CALM      29.96S
RUSSELL        FAIR      66  64  93 CALM      29.94R
CONCORDIA      FAIR      63  61  93 N7        29.99R
SALINA         FAIR      69  66  90 CALM      29.92R
TOPEKA         FAIR      71  70  96 E3        29.91R



USA.gov is the U.S. government's official web portal to all federal, state and local government web resources and services.